Regional Weather Roundup
Issued by NWS Bismarck, ND

Home | Current Version | Previous Version | Text Only | Print | Product List | Glossary On
Versions: 1 2 3 4 5 6 7 8 9 10 11 12 13 14 15 16 17 18 19 20 21 22 23 24 25 26 27 28 29 30 31 32 33 34 35 36 37 38 39 40 41 42 43 44 45 46 47 48 49 50
000
ASUS43 KBIS 260610
RWRBIS

NWR BROADCAST TEXT
NATIONAL WEATHER SERVICE BISMARCK ND
100 AM CDT THU APR 26 2018

NOTE: "FAIR" INDICATES FEW OR NO CLOUDS BELOW 12,000 FEET WITH NO
SIGNIFICANT WEATHER AND/OR OBSTRUCTIONS TO VISIBILITY.


CITY           SKY/WX    TMP DP  RH WIND       PRES   REMARKS
WILLISTON      CLEAR     45  31  58 NE8       30.06R
MINOT          MOCLDY    48  31  51 NW12      29.97R
MINOT AFB      PTCLDY    45  34  65 NW8       29.97R
BISMARCK       MOCLDY    53  36  52 N17G29    29.90R
DICKINSON      CLEAR     46  32  58 N9        29.99R
GARRISON         N/A     47  33  58 N10G20    29.96R
HETTINGER ARPT MOCLDY    48  32  53 N13       30.00R
JAMESTOWN      MOCLDY    48  32  53 NW14      29.78R
CARRINGTON     MOCLDY    48  34  57 N21       29.88R
HAZEN          CLOUDY    48  36  61 N9        29.99R
LINTON           N/A    N/A N/A N/A NW8       29.87R
MANDAN         FAIR      52  36  54 N23G31    29.91R
OAKES            N/A     46  37  71 SW16G23   29.80S
RUGBY          FAIR      45  27  49 N15       29.92R
STANLEY          N/A     41  32  70 N10       30.04R
TIOGA          FAIR      41  30  65 NW9       30.05R
WATFORD CITY   FAIR      45  32  61 N6        30.05R
$$

CITY           SKY/WX    TMP DP  RH WIND       PRES   REMARKS
GRAND FORKS    FAIR      48  32  53 N24G33    29.79R
GRAND FORKS AF FAIR      48  29  48 N23G30    29.81R
DEVILS LAKE    CLOUDY    47  32  56 N18       29.89R
FARGO          FAIR      49  36  61 S13       29.77F
CANDO          FAIR      45  27  49 N14G21    29.92R
CAVALIER         N/A     46  34  61 N12       29.86R
GRAFTON        FAIR      46  32  57 N15G21    29.85R
GWINNER          N/A     46  36  66 SW15G21   29.78F
LANGDON        FAIR      43  30  61 N14       29.88R
ROLLA          FAIR      39  27  60 N10       29.93R
WALHALLA       FAIR      46  32  57 N14G21    29.88R
$$

CITY           SKY/WX    TMP DP  RH WIND       PRES   REMARKS
ABERDEEN       MOCLDY    46  37  71 S9        29.83S
MOBRIDGE       MOCLDY    52  35  52 NW9       29.82R
BUFFALO          N/A     50  29  44 N18       29.95R
RAPID CITY     CLOUDY    55  30  38 N25G31    29.97R
GLASGOW        CLEAR     43  30  60 NW7       30.12R
SIDNEY         CLEAR     47  31  53 NW14      30.08R
WOLF POINT     CLEAR     43  31  62 W5        30.10R
GLENDIVE       PTCLDY    45  32  60 N12       30.10
MILES CITY     PTCLDY    46  35  65 NW10      30.12R
BAKER          CLEAR     45  32  60 NW12      30.08R
$$

CITY           SKY/WX    TMP DP  RH WIND       PRES   REMARKS
BILLINGS       PTCLDY    43  34  70 W7        30.24R
GREAT FALLS    CLEAR     41  32  70 S12       30.23S
REGINA         CLEAR     36  25  64 NW3       30.07R
ESTEVAN        CLEAR     36  27  69 NW9       30.04R
$$




USA.gov is the U.S. government's official web portal to all federal, state and local government web resources and services.